Back to catalog

ATLAS 5 CENTAUR DEB

LostHEO
NORAD 44847·DEBRIS·🇺🇸 United States

Launched Sep 17, 2014 from Cape Canaveral Space Force Station

Loading…

Next Passes (next 24 hours)

TLE

StaleSource: Space-Track

Epoch: May 22, 2020, 12:00 UTC

1 44847U 14055CF  20143.50000001 -.00000086  00000-0  00000+0 0  9992
2 44847  22.1980 344.5080 4978125 170.6020 256.1230  1.90758639 10926

Track ATLAS 5 CENTAUR DEB in real time with AllMySat

Download on the App Store